カタログに戻る

USA 238 DEB

運用中LEO
NORAD 38773·DEBRIS·🇺🇸 United States

打ち上げ Sep 13, 2012 から Vandenberg Space Force Base

Loading…

次のパス (今後24時間)

TLE

古いSource: Mike McCants

元期: Jul 20, 2026, 20:53 UTC

1 38773U 12048P   26201.87048512 0.00000000  00000-0  00000-0 0    02
2 38773  63.4244 122.7472 0311724 358.6294   1.3706 13.41005328    07

AllMySatでUSA 238 DEBをリアルタイム追跡

Download on the App Store